LiveATC.Net - Listen to live air traffic control over the Internet!

ICAO: KOSU  IATA: OSU   Airport: Ohio State University Airport
City: Columbus   State/Province: Ohio
Country: United States   Continent: North America
KOSU METAR Weather: KOSU 211353Z 32013G21KT 5SM RA BR OVC008 09/08 A2992 RMK AO2 PK WND 32028/1301 SLP132 P0003 T00890078
KOSU Flight Activity (FlightAware)
KOSU Airport Info   (AirNav) (iFlightPlanner)
KOSU VFR Sectional Chart   (iFlightPlanner) 
KOSU IFR Low Chart   (iFlightPlanner) 
KOSU Ground/Tower
Feed Status: UP   Listeners: 0
Listen right in your browser - requires Flash (in browser, requires Flash)
Click here to listen with your own player (launches your MP3 player)
KOSU Ground/Tower Audio Archives
State Ground121.700
State Tower118.800

Sponsored by:


Unauthorized use prohibited. See Terms of Service

Find LiveATC Audio Streams

Airport/ARTCC Code

(e.g., 124.400, 128.75)
Site-wide search

Browse LiveATC Feeds
LiveATC Coverage Map
Top 50 LiveATC Feeds
Bad Weather Areas

Offer a LiveATC Feed
Press Inquiries

LiveATC on iPhone
LiveATC on Android

Windows Phone
Windows 8/10

LiveATC Mobile
(Mobile browser)

ATC Audio Archives
Interesting Recordings

LiveATC Forums

Home Page
Make a Donation
LiveATC Store

Terms of Use
Privacy Policy

Canadian Air Freqs


FAA Airport Status
Nat'l Airspace Status
Arrival Demand Charts

Server Software By: